[[[{"header":{"parameterUnit":"kt","parameterCategory":2,"dx":1,"dy":1,"la1":30.253999710083008,"la2":30.299108505249023,"lo1":-89.0895004272461,"lo2":-89.04439544677734,"nx":28,"ny":28,"refTime":"2022-09-18T21:00:00:Z","depth":"0","parameterNumber":2,"parameterNumberName":"U-component_of_CURRENTS"},"data":[0.7319,0.7076,0.7016,0.6525,0.6341,0.5867,0.5674,0.5493,0.5596,0.5832,0.6279,0.6811,0.7567,0.8104,0.8108,0.8017,0.7393,0.713,0.6981,0.787,0.7946,0.8018,0.7727,0.7282,0.7281,0.5584,0.557,0.556,0.7521,0.7418,0.7314,0.7043,0.6795,0.6829,0.657,0.6321,0.6188,0.6535,0.6711,0.7473,0.7955,0.8549,0.9055,0.8872,0.8605,0.8611,0.8041,0.7905,0.9126,0.8866,0.8657,0.8657,0.8657,0.8658,0.8658,0.8658,0.7754,0.7741,0.7526,0.7421,0.7299,0.7048,0.6885,0.6805,0.6777,0.6829,0.7216,0.7512,0.8277,0.9233,0.9466,0.9641,0.9557,0.9558,0.9422,0.9099,0.8621,0.9693,0.9961,0.9963,0.9966,0.9968,0.997,0,0.7763,0.7739,0.7672,0.7554,0.746,0.7365,0.729,0.728,0.7313,0.7422,0.7535,0.7759,0.8473,0.8928,0.9635,1.0007,0.9757,1.0271,0.9969,0.9347,0.8722,0.8435,0.9676,1.0116,1.012,1.0123,1.0125,1.0127,0.7627,0.7658,0.7627,0.7542,0.7491,0.755,0.7482,0.7581,0.7536,0.775,0.778,0.816,0.839,0.9178,0.9672,1.0284,0.9993,1.0347,1.0235,0.9747,0.9525,0.9107,0.8862,1.0167,1.0162,1.0158,1.0154,0,0.7504,0.7397,0.7472,0.7435,0.7436,0.7566,0.7495,0.7544,0.769,0.78,0.7874,0.8153,0.8556,0.8982,0.9641,0.9836,1.0037,1.0442,1.0042,0.9989,0.9687,0.9481,0.942,0.9161,1.0679,1.0677,1.0676,0,0.723,0.7302,0.7174,0.7171,0.7348,0.7269,0.744,0.759,0.7716,0.7826,0.8036,0.8195,0.8659,0.9001,0.935,0.9776,0.9958,1.0037,1.0037,0.979,0.9739,0.9488,0.9264,1.0375,1.0371,1.0368,1.0365,0,0.7027,0.6975,0.7035,0.7006,0.6978,0.7082,0.714,0.7344,0.7439,0.777,0.783,0.8352,0.8518,0.8958,0.9242,0.9162,0.9845,0.9772,0.9877,0.9857,0.9742,0.9689,0.9856,1.036,1.0359,1.0358,1.0356,0,0.6749,0.672,0.674,0.6787,0.6799,0.6816,0.7079,0.7144,0.7446,0.7538,0.7853,0.7972,0.8455,0.836,0.9021,0.878,0.9036,0.9208,0.9228,0.9025,0.8803,0.8911,0.9338,0.8995,0.9285,0.9277,0.9269,0,0.6624,0.66,0.6494,0.6543,0.6571,0.6543,0.6668,0.6806,0.6915,0.7128,0.7472,0.7735,0.7783,0.793,0.8235,0.8487,0.8807,0.849,0.8868,0.888,0.8623,0.9067,0.8834,0.9213,0.9161,0.9172,0.9181,0,0.6546,0.6388,0.6388,0.6413,0.6319,0.6306,0.6421,0.6582,0.6763,0.6817,0.7098,0.7526,0.76,0.7783,0.7932,0.8191,0.8614,0.8103,0.8112,0.8225,0.9144,0.8934,0.8986,0.8609,0.8623,0.8634,0.9095,0,0.6414,0.6377,0.6348,0.6305,0.625,0.6226,0.6214,0.626,0.6305,0.6366,0.6735,0.6885,0.718,0.7317,0.7374,0.7878,0.7793,0.7743,0.7609,0.7918,0.8066,0.8135,0.7269,0.7265,0.7261,0.7259,0,0,0.6425,0.6389,0.6277,0.6226,0.6209,0.612,0.6118,0.6117,0.6059,0.6197,0.609,0.6546,0.6668,0.7154,0.7275,0.7279,0.7357,0.7229,0.7738,0.779,0.784,0.7999,0.8068,0.7253,0.7251,0.725,0.7249,0,0.6404,0.6343,0.6314,0.6228,0.6126,0.6086,0.6079,0.5957,0.5985,0.6036,0.616,0.64,0.6495,0.6751,0.6898,0.7189,0.72,0.7234,0.742,0.7698,0.7755,0.7806,0.7973,0.8038,0.7241,0.7241,0.7242,0,0.6409,0.635,0.6314,0.6192,0.611,0.6065,0.5993,0.591,0.5951,0.5921,0.5993,0.6115,0.6297,0.6508,0.6606,0.6528,0.7023,0.6812,0.6833,0.6875,0.7156,0.7221,0.728,0.6524,0.6522,0.6519,0,0,0.641,0.6363,0.6237,0.6179,0.6136,0.6025,0.5968,0.5917,0.5893,0.5887,0.5903,0.6025,0.6228,0.6289,0.6397,0.6542,0.6624,0.6723,0.6757,0.6784,0.684,0.7127,0.719,0.651,0.6509,0.6509,0,0,0.6394,0.6279,0.6255,0.6188,0.608,0.5933,0.5888,0.5853,0.5853,0.589,0.5915,0.5932,0.6137,0.6138,0.6005,0.642,0.6286,0.631,0.6398,0.644,0.6473,0.6515,0.5979,0,0,0,0,0,0.6327,0.6296,0.6276,0.6251,0.6083,0.5947,0.5919,0.5837,0.5857,0.5814,0.5881,0.5878,0.6115,0.5993,0.6006,0.6215,0.6385,0.6407,0.6428,0.658,0.6624,0.6662,0,0,0,0,0,0,0.6316,0.6288,0.6275,0.6136,0.6097,0.5949,0.5935,0.591,0.5859,0.5854,0.5866,0.5878,0.5883,0.5987,0.5998,0.6201,0.5975,0.6394,0.6413,0.6429,0.6595,0.6631,0.6663,0,0,0,0,0,0.6308,0.6284,0.605,0.6134,0.61,0.5978,0.5937,0.5916,0.5875,0.5876,0.588,0.5823,0.5881,0.5896,0.5994,0.6198,0.5967,0.5971,0.6406,0.6421,0.6434,0.6613,0,0,0,0,0,0,0.6301,0.6248,0.604,0.6024,0.6158,0.5984,0.5958,0.5921,0.5904,0.59,0.5837,0.5835,0.5879,0.5891,0.5902,0.6203,0.5961,0.5965,0.5968,0.6417,0.6429,0.6439,0,0,0,0,0,0,0.626,0.6236,0.6032,0.6066,0.6054,0.5989,0.5967,0.6007,0.5913,0.5869,0.5862,0.5838,0.5948,0.5888,0.5897,0.5954,0.5956,0.596,0.5963,0.5965,0.6427,0.6436,0,0,0,0,0,0,0.6247,0.6226,0.6069,0.606,0.6049,0.5867,0.6032,0.5916,0.578,0.5877,0.5784,0.5785,0.5951,0.5954,0.5892,0.5945,0.5951,0.5956,0.5959,0.5961,0.5962,0,0,0,0,0,0,0,0.6237,0.6408,0.6135,0.6055,0.6045,0.5883,0.5879,0.5874,0.578,0.5782,0.5783,0.5785,0.5933,0.5937,0.5942,0.5938,0,0,0.5956,0.5958,0,0,0,0,0,0,0,0,0.6413,0.6409,0.6135,0.6132,0.6129,0.5883,0.5879,0.5875,0.578,0.5782,0.5783,0.5784,0.5934,0.5938,0.5941,0,0,0,0,0,0,0,0,0,0,0,0,0,0,0,0.6135,0.6132,0,0.5882,0.5879,0.5876,0.578,0.5781,0.5783,0.5784,0.5935,0.5938,0.5941,0,0,0,0,0,0,0,0,0,0,0,0,0,0,0,0,0,0,0,0,0,0,0,0,0,0,0,0,0,0,0,0,0,0,0,0,0,0,0,0,0,0,0,0,0,0,0,0,0,0,0,0,0,0,0,0,0,0,0,0,0,0,0,0,0,0,0,0,0]}],[{"header":{"parameterUnit":"kt","parameterCategory":2,"dx":1,"dy":1,"la1":30.253999710083008,"la2":30.299108505249023,"lo1":-89.0895004272461,"lo2":-89.04439544677734,"nx":28,"ny":28,"refTime":"2022-09-18T21:00:00:Z","depth":"0","parameterNumber":3,"parameterNumberName":"V-component_of_CURRENTS"},"data":[0.2431,0.262,0.2767,0.3283,0.3608,0.407,0.4371,0.4678,0.5068,0.553,0.585,0.616,0.5598,0.2743,0.0615,0.0107,-0.0541,-0.0636,-0.0988,-0.0242,-0.0131,-0.0026,-0.0097,-0.1096,-0.1098,-0.199,-0.2,-0.2008,0.243,0.2567,0.2881,0.3289,0.3651,0.3879,0.4443,0.4701,0.5085,0.5556,0.5809,0.5782,0.4812,0.3876,0.2332,0.1333,0.1095,0.0777,0.0702,0.0599,0.1758,0.1747,0.1125,0.1125,0.1126,0.1126,0.1127,0.1128,0.2371,0.2546,0.2752,0.312,0.3479,0.3911,0.4254,0.4634,0.5116,0.5592,0.5706,0.5893,0.5315,0.4419,0.373,0.2472,0.2649,0.2107,0.1914,0.1917,0.1687,0.2869,0.262,0.2621,0.2621,0.2622,0.2622,0,0.2264,0.2344,0.261,0.2957,0.3285,0.3737,0.4196,0.4498,0.5024,0.5352,0.5654,0.5744,0.5351,0.4898,0.4176,0.3758,0.3074,0.3294,0.2728,0.2423,0.2199,0.1829,0.3206,0.3257,0.3262,0.3265,0.3267,0.3269,0.1957,0.2183,0.2601,0.2793,0.2982,0.3474,0.3805,0.4311,0.4672,0.52,0.5409,0.544,0.5527,0.5004,0.4483,0.3941,0.356,0.342,0.3432,0.274,0.2338,0.226,0.2072,0.3314,0.3308,0.3304,0.33,0,0.1758,0.1891,0.2333,0.2762,0.2916,0.3302,0.3845,0.425,0.4641,0.513,0.525,0.5498,0.5353,0.5132,0.4833,0.4488,0.3856,0.3938,0.3811,0.3616,0.2687,0.2455,0.2215,0.1973,0.3439,0.3432,0.3427,0,0.1451,0.1785,0.2013,0.2242,0.2787,0.3039,0.3651,0.4007,0.4487,0.4914,0.508,0.5331,0.5219,0.5111,0.4791,0.4381,0.4567,0.4014,0.3819,0.3799,0.3757,0.3196,0.2942,0.4328,0.4331,0.4334,0.4336,0,0.106,0.1495,0.188,0.2031,0.2506,0.2817,0.3115,0.3661,0.4026,0.4522,0.4714,0.5079,0.5139,0.5007,0.4659,0.458,0.4466,0.4309,0.3846,0.3808,0.3715,0.3658,0.341,0.4339,0.434,0.4341,0.4342,0,0.0798,0.1002,0.1458,0.1961,0.2091,0.2376,0.3028,0.3365,0.3891,0.4074,0.4441,0.4493,0.4848,0.4537,0.4593,0.4515,0.4244,0.4066,0.4046,0.3772,0.3358,0.297,0.3313,0.2744,0.3537,0.3535,0.3532,0,0.0456,0.0827,0.0907,0.1409,0.1666,0.1811,0.2223,0.2597,0.2846,0.3245,0.3507,0.3905,0.3793,0.3931,0.405,0.3958,0.3994,0.3977,0.3559,0.3548,0.3193,0.3591,0.3561,0.3282,0.3498,0.3501,0.3504,0,0.0184,0.0419,0.048,0.0696,0.0923,0.1109,0.1506,0.1947,0.2287,0.246,0.2925,0.3439,0.3419,0.3649,0.3705,0.3793,0.3896,0.3479,0.3473,0.3212,0.3801,0.3553,0.3548,0.377,0.378,0.3789,0.3476,0,0.0057,0.0215,0.0296,0.0508,0.0662,0.085,0.1027,0.123,0.1322,0.1511,0.2043,0.2215,0.2641,0.2762,0.2796,0.3299,0.3019,0.2935,0.2693,0.309,0.2883,0.2907,0.2539,0.2532,0.2527,0.2523,0,0,-0.0191,-0.0031,-0.0088,0.0072,0.0227,0.0183,0.0428,0.0577,0.078,0.1009,0.0835,0.1534,0.1681,0.234,0.2516,0.2546,0.2394,0.2493,0.2922,0.2967,0.3008,0.2833,0.2861,0.2513,0.2511,0.251,0.2508,0,-0.0239,-0.0262,-0.0157,-0.0061,0.0036,0.0118,0.0151,0.0261,0.0377,0.0686,0.0758,0.106,0.1395,0.1702,0.1897,0.2412,0.2168,0.2459,0.2807,0.2871,0.2923,0.2968,0.2807,0.2836,0.2495,0.2496,0.2496,0,-0.0377,-0.0357,-0.0328,-0.0234,-0.0173,0.0013,-0.0124,-0.0016,0.0213,0.013,0.0468,0.0591,0.0854,0.1259,0.143,0.1319,0.1894,0.1802,0.1837,0.193,0.1983,0.2048,0.2105,0.1343,0.1338,0.1334,0,0,-0.0417,-0.0373,-0.0318,-0.0246,-0.021,-0.015,-0.0088,-0.0072,0.005,0.0106,0.0217,0.042,0.072,0.0852,0.1072,0.1416,0.133,0.1659,0.1713,0.1758,0.1872,0.1941,0.2005,0.1319,0.1318,0.1318,0,0,-0.0434,-0.0407,-0.0419,-0.035,-0.0257,-0.0175,-0.0099,-0.0097,0.0062,0.0056,0.0123,0.0164,0.052,0.0572,0.0355,0.1051,0.0835,0.0881,0.0997,0.1066,0.1119,0.1197,0.0252,0,0,0,0,0,-0.0473,-0.0412,-0.0424,-0.041,-0.0303,-0.0168,-0.0141,-0.0122,-0.018,-0.01,0.0024,-0.003,0.0524,0.033,0.0377,0.0659,0.1115,0.1151,0.1185,0.1419,0.1491,0.1551,0,0,0,0,0,0,-0.0468,-0.0455,-0.0424,-0.0356,-0.033,-0.0172,-0.0262,-0.0251,-0.0188,-0.0194,-0.0045,-0.0025,0.0023,0.0305,0.0348,0.0618,0.0238,0.1129,0.116,0.1187,0.1443,0.1502,0.1553,0,0,0,0,0,-0.0464,-0.0453,-0.0313,-0.0352,-0.033,-0.0281,-0.0268,-0.0259,-0.0199,-0.0095,-0.0076,-0.0195,0.0025,0.0065,0.033,0.0601,0.0208,0.0224,0.1149,0.1173,0.1195,0.1472,0,0,0,0,0,0,-0.046,-0.0406,-0.0305,-0.0293,-0.0413,-0.0286,-0.0275,-0.0266,-0.0101,-0.0085,-0.0242,-0.0249,0.0028,0.0059,0.009,0.06,0.0184,0.02,0.021,0.1167,0.1186,0.1203,0,0,0,0,0,0,-0.0412,-0.0397,-0.0298,-0.0377,-0.0374,-0.0291,-0.0282,-0.0098,-0.0096,-0.0254,-0.0257,-0.0247,-0.0011,0.0055,0.0079,0.0369,0.0165,0.0181,0.0192,0.0199,0.1183,0.1198,0,0,0,0,0,0,-0.0403,-0.039,-0.0379,-0.0377,-0.0374,-0.0234,-0.0121,-0.0005,-0.0201,-0.0258,-0.0216,-0.0223,-0.0013,0.0011,0.0072,0.0352,0.0365,0.0166,0.0177,0.0184,0.0189,0,0,0,0,0,0,0,-0.0396,-0.0515,-0.0386,-0.0376,-0.0374,-0.0189,-0.0184,-0.018,-0.0202,-0.0208,-0.0214,-0.022,0.0076,0.0093,0.0111,0.0338,0,0,0.0164,0.0172,0,0,0,0,0,0,0,0,-0.0517,-0.0515,-0.0385,-0.0384,-0.0382,-0.0188,-0.0184,-0.0181,-0.0203,-0.0208,-0.0213,-0.0217,0.0081,0.0095,0.0109,0,0,0,0,0,0,0,0,0,0,0,0,0,0,0,-0.0385,-0.0384,0,-0.0188,-0.0185,-0.0182,-0.0204,-0.0208,-0.0212,-0.0216,0.0085,0.0096,0.0108,0,0,0,0,0,0,0,0,0,0,0,0,0,0,0,0,0,0,0,0,0,0,0,0,0,0,0,0,0,0,0,0,0,0,0,0,0,0,0,0,0,0,0,0,0,0,0,0,0,0,0,0,0,0,0,0,0,0,0,0,0,0,0,0,0,0,0,0,0]}]],[[{"header":{"parameterUnit":"kt","parameterCategory":2,"dx":1,"dy":1,"la1":30.253999710083008,"la2":30.299108505249023,"lo1":-89.0895004272461,"lo2":-89.04439544677734,"nx":28,"ny":28,"refTime":"2022-09-18T21:00:00:Z","depth":"2","parameterNumber":2,"parameterNumberName":"U-component_of_CURRENTS"},"data":[0.5309,0.5372,0.5482,0.5593,0.5758,0.5785,0.5839,0.5457,0.524,0.4509,0.4193,0.417,0.4492,0.371,0.3597,0.3344,0.3811,0.3185,0.4637,0.4908,0.5023,0.5354,0.4916,0,0,0,0,0,0.5416,0.5566,0.5679,0.5867,0.5961,0.6133,0.6285,0.6124,0.597,0.5822,0.5635,0.4989,0.4625,0.4755,0.4343,0.4215,0.4274,0.4076,0.4194,0.4328,0.4448,0.4071,0.3129,0.3124,0.3119,0.3114,0,0,0.5643,0.5698,0.5876,0.6031,0.6177,0.6302,0.6338,0.6433,0.6487,0.6472,0.6777,0.6499,0.6506,0.5784,0.5602,0.5492,0.5915,0.5675,0.5731,0.5802,0.5485,0.5258,0.492,0.4927,0.4933,0.4939,0.4944,0,0.5766,0.5889,0.6034,0.6196,0.633,0.6452,0.6648,0.6742,0.7079,0.7174,0.7355,0.7368,0.7378,0.6925,0.6728,0.6604,0.6857,0.6576,0.7679,0.6326,0.6122,0.608,0.6116,0.5999,0.6013,0.6023,0.6031,0.6036,0.5818,0.5954,0.6216,0.6294,0.6419,0.6587,0.669,0.6944,0.7089,0.7502,0.7605,0.7839,0.7818,0.783,0.7631,0.7511,0.7785,0.6914,0.6644,0.7431,0.7389,0.7376,0.7362,0.6183,0.6164,0.6149,0.6136,0,0.5764,0.5997,0.6224,0.6471,0.6536,0.6646,0.6856,0.6983,0.7227,0.7447,0.7553,0.7837,0.7977,0.8041,0.8217,0.8023,0.8015,0.7907,0.7309,0.7189,0.7451,0.742,0.7562,0.7547,0.7535,0.7525,0.7516,0,0.5745,0.5941,0.6204,0.6335,0.6498,0.6682,0.686,0.6989,0.7206,0.7367,0.7547,0.7708,0.7867,0.7997,0.801,0.7911,0.8221,0.7697,0.7664,0.7201,0.7116,0.7943,0.7908,0.8222,0.822,0.8218,0.8216,0,0.5628,0.5944,0.6181,0.6272,0.6531,0.6633,0.6734,0.6917,0.702,0.7282,0.739,0.7618,0.7748,0.786,0.7883,0.783,0.8088,0.8027,0.7654,0.7623,0.7183,0.7095,0.8214,0.8214,0.8213,0.8212,0.8211,0,0.5627,0.5827,0.6111,0.635,0.6422,0.6525,0.6718,0.6823,0.7006,0.7081,0.7245,0.7316,0.7515,0.74,0.7655,0.7557,0.7601,0.7622,0.7633,0.717,0.7033,0.676,0.6775,0.7691,0.7686,0.7682,0.7678,0,0.5482,0.5816,0.5945,0.6153,0.6317,0.6396,0.6498,0.6617,0.67,0.6829,0.6918,0.7074,0.7011,0.7106,0.7191,0.7281,0.7389,0.7218,0.7437,0.7444,0.7021,0.7134,0.6587,0.6744,0.7621,0.7627,0.7631,0,0.5386,0.5729,0.5761,0.5903,0.611,0.6187,0.6295,0.6455,0.6559,0.6602,0.6758,0.6865,0.6904,0.6961,0.6992,0.7077,0.7289,0.704,0.7043,0.7159,0.7589,0.7115,0.7108,0.7299,0.7306,0.7312,0.7586,0,0.5418,0.5616,0.5685,0.5924,0.6015,0.6124,0.623,0.6276,0.6301,0.6367,0.652,0.6558,0.6683,0.6689,0.6695,0.6899,0.6888,0.6848,0.6811,0.6935,0.703,0.7066,0.6606,0.6604,0.6602,0.66,0,0,0.5281,0.552,0.5631,0.58,0.5902,0.5953,0.6081,0.6124,0.621,0.627,0.6209,0.639,0.6412,0.6605,0.6621,0.6622,0.6689,0.6627,0.6842,0.6868,0.6893,0.6992,0.7029,0.6596,0.6596,0.6595,0.6594,0,0.5289,0.5468,0.5598,0.5705,0.589,0.5941,0.5977,0.6073,0.6097,0.6189,0.6197,0.6275,0.635,0.6414,0.6463,0.6583,0.6614,0.6584,0.6686,0.6819,0.6848,0.6875,0.6977,0.7012,0.6589,0.659,0.659,0,0.5256,0.5431,0.5487,0.5741,0.5813,0.5923,0.5918,0.6009,0.6077,0.6063,0.6122,0.6158,0.6214,0.6307,0.6348,0.6315,0.6548,0.6437,0.6447,0.6474,0.661,0.6642,0.6671,0.6308,0.6308,0.6307,0,0,0.5282,0.5416,0.5605,0.5751,0.582,0.59,0.596,0.5986,0.6037,0.6049,0.6067,0.6101,0.6179,0.6212,0.6256,0.6357,0.6404,0.6407,0.642,0.6432,0.6464,0.6602,0.6632,0.6305,0.6305,0.6305,0,0,0.5228,0.5453,0.5529,0.5737,0.5832,0.591,0.5965,0.5991,0.603,0.6023,0.6037,0.6046,0.6139,0.6139,0.6109,0.6248,0.6186,0.6194,0.627,0.6286,0.6299,0.6326,0.6073,0,0,0,0,0,0.5301,0.5438,0.5509,0.5566,0.581,0.5912,0.5931,0.5968,0.5954,0.5976,0.5998,0.5989,0.6107,0.6082,0.6102,0.6177,0.6279,0.6284,0.6288,0.6408,0.6425,0.644,0,0,0,0,0,0,0.5323,0.5391,0.5504,0.5607,0.5664,0.5907,0.5868,0.5876,0.5949,0.5943,0.5985,0.599,0.5988,0.6073,0.609,0.6162,0.6067,0.6281,0.6285,0.6288,0.6414,0.6428,0.644,0,0,0,0,0,0.5342,0.5396,0.58,0.5601,0.565,0.5745,0.5862,0.5869,0.5899,0.5961,0.5964,0.593,0.5989,0.6005,0.6083,0.6154,0.6054,0.6061,0.6283,0.6287,0.6289,0.6421,0,0,0,0,0,0,0.5356,0.5349,0.5808,0.5822,0.557,0.5727,0.5757,0.5863,0.5909,0.592,0.5905,0.5899,0.5992,0.6003,0.6015,0.6151,0.6045,0.6051,0.6055,0.6286,0.6288,0.629,0,0,0,0,0,0,0.5322,0.536,0.5814,0.5773,0.5781,0.5711,0.5738,0.582,0.5908,0.5843,0.5845,0.5902,0.5983,0.6002,0.6011,0.6135,0.6037,0.6043,0.6048,0.6051,0.6288,0.629,0,0,0,0,0,0,0.5337,0.537,0.5767,0.5774,0.5781,0.5922,0.5777,0.6018,0.5908,0.5837,0.59,0.5896,0.5984,0.5992,0.6009,0.6129,0.6133,0.6037,0.6042,0.6045,0.6047,0,0,0,0,0,0,0,0.535,0.5138,0.5753,0.5775,0.5781,0.5959,0.596,0.5961,0.5907,0.5904,0.5901,0.5898,0.6001,0.6008,0.6015,0.6124,0,0,0.6037,0.604,0,0,0,0,0,0,0,0,0.5123,0.5134,0.5754,0.5758,0.5763,0.5959,0.596,0.5961,0.5907,0.5904,0.5901,0.5899,0.6002,0.6008,0.6014,0,0,0,0,0,0,0,0,0,0,0,0,0,0,0,0.5754,0.5758,0,0.5959,0.596,0.5961,0.5906,0.5904,0.5902,0.59,0.6004,0.6009,0.6013,0,0,0,0,0,0,0,0,0,0,0,0,0,0,0,0,0,0,0,0,0,0,0,0,0,0,0,0,0,0,0,0,0,0,0,0,0,0,0,0,0,0,0,0,0,0,0,0,0,0,0,0,0,0,0,0,0,0,0,0,0,0,0,0,0,0,0,0,0]}],[{"header":{"parameterUnit":"kt","parameterCategory":2,"dx":1,"dy":1,"la1":30.253999710083008,"la2":30.299108505249023,"lo1":-89.0895004272461,"lo2":-89.04439544677734,"nx":28,"ny":28,"refTime":"2022-09-18T21:00:00:Z","depth":"2","parameterNumber":3,"parameterNumberName":"V-component_of_CURRENTS"},"data":[0.0271,0.0519,0.0622,0.1111,0.1341,0.1725,0.1948,0.2307,0.2505,0.2772,0.276,0.2555,0.1781,0.1084,0.032,-0.0176,-0.0351,-0.0282,-0.0255,-0.023,-0.0229,-0.0813,-0.0793,0,0,0,0,0,0.0127,0.0266,0.048,0.0809,0.1095,0.1168,0.1532,0.179,0.2275,0.2454,0.2679,0.216,0.1645,0.0984,0.0012,-0.0569,-0.0677,-0.0738,-0.0783,-0.0791,-0.0799,-0.0782,-0.0715,-0.0715,-0.0716,-0.0716,0,0,-0.0051,0.0058,0.028,0.0508,0.0739,0.1029,0.1243,0.1538,0.1892,0.2214,0.2206,0.2274,0.1646,0.0806,0.0255,-0.0411,-0.0477,-0.08,-0.0805,-0.0812,-0.0793,-0.0689,-0.073,-0.073,-0.073,-0.0731,-0.0731,0,-0.0121,-0.0042,0.0072,0.0323,0.0516,0.0722,0.0969,0.1127,0.1329,0.1543,0.1819,0.1867,0.1409,0.0943,0.0272,-0.0099,-0.0641,-0.069,-0.0706,-0.09,-0.0792,-0.0838,-0.0837,-0.0864,-0.0865,-0.0866,-0.0866,-0.0867,-0.0104,-0.008,0.0099,0.0224,0.0299,0.0469,0.0624,0.074,0.09,0.1091,0.1197,0.1143,0.1163,0.0669,0.009,-0.0381,-0.0512,-0.07,-0.0894,-0.0852,-0.0899,-0.0895,-0.0891,-0.0878,-0.0877,-0.0876,-0.0875,0,-0.0045,-0.0006,0.0047,0.0164,0.0223,0.0309,0.052,0.0628,0.069,0.085,0.0885,0.0792,0.066,0.0289,-0.0093,-0.0416,-0.0711,-0.0798,-0.067,-0.0709,-0.0903,-0.0897,-0.0941,-0.0939,-0.0938,-0.0936,-0.0935,0,0.0045,0.0043,0.0147,0.015,0.0245,0.0247,0.0357,0.0368,0.0434,0.055,0.0391,0.0463,0.0068,-0.0075,-0.0365,-0.0606,-0.0637,-0.0907,-0.0959,-0.0939,-0.0929,-0.1048,-0.1047,-0.106,-0.106,-0.106,-0.106,0,0.0101,0.0119,0.0127,0.0123,0.0146,0.0176,0.0212,0.0184,0.0232,0.0199,0.0263,0.0048,0.004,-0.0233,-0.0448,-0.052,-0.0708,-0.0863,-0.0954,-0.0947,-0.0984,-0.0978,-0.106,-0.106,-0.106,-0.106,-0.106,0,0.0137,0.0149,0.0139,0.0163,0.0153,0.016,0.0146,0.0133,0.0069,0.0055,-0.0025,-0.0111,-0.024,-0.0334,-0.0594,-0.0553,-0.0704,-0.084,-0.0846,-0.0828,-0.0895,-0.0842,-0.0849,-0.0898,-0.0897,-0.0896,-0.0895,0,0.019,0.017,0.0148,0.0131,0.0101,0.0064,0.0041,-0.0014,-0.0061,-0.0086,-0.0246,-0.0295,-0.0415,-0.0413,-0.055,-0.0706,-0.0788,-0.0751,-0.0939,-0.0942,-0.0851,-0.0862,-0.0841,-0.0837,-0.0884,-0.0885,-0.0886,0,0.0196,0.017,0.0162,0.0146,0.0069,0.0061,0.0002,-0.0064,-0.0068,-0.0166,-0.0196,-0.0407,-0.0418,-0.0515,-0.0625,-0.0725,-0.0767,-0.0776,-0.0784,-0.0726,-0.0914,-0.0852,-0.0853,-0.0872,-0.0874,-0.0875,-0.0877,0,0.0181,0.0158,0.016,0.0082,0.0064,0.0053,-0.0031,-0.0046,-0.0097,-0.015,-0.0266,-0.04,-0.0512,-0.0599,-0.0671,-0.0781,-0.077,-0.086,-0.0861,-0.0884,-0.088,-0.0887,-0.0833,-0.0835,-0.0836,-0.0838,0,0,0.0175,0.0131,0.0099,0.007,0.0045,-0.0012,-0.0036,-0.0078,-0.0152,-0.0183,-0.0207,-0.0428,-0.0547,-0.0702,-0.072,-0.0791,-0.0816,-0.0761,-0.088,-0.0884,-0.0888,-0.0885,-0.089,-0.084,-0.0841,-0.0841,-0.0842,0,0.0141,0.0099,0.0093,0.0065,0.0013,-0.0025,-0.0032,-0.0082,-0.0121,-0.0187,-0.03,-0.0398,-0.0546,-0.066,-0.0746,-0.0797,-0.0847,-0.0849,-0.0779,-0.0889,-0.0891,-0.0894,-0.089,-0.0893,-0.0845,-0.0845,-0.0845,0,0.0093,0.0047,0.0045,-0.0015,-0.0047,-0.0078,-0.0113,-0.0118,-0.0159,-0.0254,-0.0326,-0.0419,-0.0573,-0.0671,-0.0728,-0.0733,-0.0856,-0.084,-0.0837,-0.0804,-0.0919,-0.0921,-0.0924,-0.0883,-0.0883,-0.0882,0,0,0.006,0.0052,-0.0023,-0.0033,-0.0054,-0.0104,-0.011,-0.0141,-0.0204,-0.0229,-0.0312,-0.0429,-0.0551,-0.061,-0.0709,-0.0783,-0.0819,-0.0837,-0.0835,-0.0833,-0.08,-0.0913,-0.0916,-0.088,-0.088,-0.088,0,0,0.005,-0.0023,-0.0071,-0.0089,-0.0121,-0.0161,-0.015,-0.0184,-0.0242,-0.0263,-0.0375,-0.0407,-0.0517,-0.0586,-0.054,-0.0722,-0.0742,-0.0752,-0.0649,-0.0649,-0.0647,-0.0579,-0.0609,0,0,0,0,0,-0.0024,-0.0014,-0.0058,-0.0072,-0.0136,-0.0147,-0.015,-0.019,-0.0224,-0.0211,-0.0312,-0.0367,-0.0598,-0.0559,-0.0583,-0.0621,-0.0848,-0.0854,-0.0859,-0.0748,-0.0746,-0.0745,0,0,0,0,0,0,-0.003,-0.0048,-0.0057,-0.0104,-0.0118,-0.0148,-0.0201,-0.021,-0.0226,-0.0234,-0.0344,-0.037,-0.0442,-0.0552,-0.0573,-0.0607,-0.0602,-0.085,-0.0855,-0.0859,-0.0747,-0.0746,-0.0745,0,0,0,0,0,-0.0035,-0.005,-0.0157,-0.0102,-0.0114,-0.0166,-0.0203,-0.0211,-0.0221,-0.0333,-0.0356,-0.0256,-0.0438,-0.0465,-0.0565,-0.0596,-0.0588,-0.0596,-0.0853,-0.0857,-0.086,-0.0746,0,0,0,0,0,0,-0.0038,-0.0036,-0.0159,-0.0162,-0.0124,-0.0164,-0.0177,-0.0212,-0.0322,-0.0341,-0.0251,-0.0257,-0.0435,-0.0456,-0.0476,-0.0589,-0.0577,-0.0585,-0.0589,-0.0856,-0.0859,-0.0862,0,0,0,0,0,0,-0.0029,-0.0039,-0.016,-0.0187,-0.0193,-0.0162,-0.0174,-0.0244,-0.0328,-0.0236,-0.0242,-0.0254,-0.0456,-0.045,-0.0466,-0.0569,-0.0569,-0.0576,-0.0581,-0.0584,-0.0859,-0.0861,0,0,0,0,0,0,-0.0032,-0.0041,-0.0186,-0.019,-0.0196,-0.0229,-0.0229,-0.0321,-0.0261,-0.0233,-0.0268,-0.0271,-0.0452,-0.0466,-0.0459,-0.0553,-0.0565,-0.0569,-0.0574,-0.0577,-0.0579,0,0,0,0,0,0,0,-0.0036,0.0018,-0.0148,-0.0194,-0.0198,-0.0192,-0.0192,-0.0192,-0.0262,-0.0265,-0.0267,-0.027,-0.0527,-0.0535,-0.0543,-0.0541,0,0,-0.0568,-0.0572,0,0,0,0,0,0,0,0,0.0022,0.0019,-0.0148,-0.0149,-0.015,-0.0192,-0.0192,-0.0192,-0.0263,-0.0265,-0.0267,-0.0269,-0.053,-0.0536,-0.0542,0,0,0,0,0,0,0,0,0,0,0,0,0,0,0,-0.0148,-0.0149,0,-0.0192,-0.0192,-0.0192,-0.0263,-0.0265,-0.0266,-0.0268,-0.0531,-0.0537,-0.0542,0,0,0,0,0,0,0,0,0,0,0,0,0,0,0,0,0,0,0,0,0,0,0,0,0,0,0,0,0,0,0,0,0,0,0,0,0,0,0,0,0,0,0,0,0,0,0,0,0,0,0,0,0,0,0,0,0,0,0,0,0,0,0,0,0,0,0,0,0]}]],[[{"header":{"parameterUnit":"kt","parameterCategory":2,"dx":1,"dy":1,"la1":30.253999710083008,"la2":30.299108505249023,"lo1":-89.0895004272461,"lo2":-89.04439544677734,"nx":28,"ny":28,"refTime":"2022-09-18T21:00:00:Z","depth":"4","parameterNumber":2,"parameterNumberName":"U-component_of_CURRENTS"},"data":[0.0633,0.076,0.087,0.0931,0.0987,0.1192,0.1414,0.167,0.1775,0.2117,0.2197,0.24,0.2521,0.2696,0.2629,0.2651,0.2561,0.2911,0.2902,0.2889,0.2909,0.2927,0.2979,0,0,0,0,0,0.066,0.077,0.0899,0.1069,0.1212,0.136,0.1711,0.1924,0.2299,0.2353,0.2519,0.2646,0.2703,0.2795,0.272,0.2889,0.2922,0.2775,0.2748,0.2902,0.2924,0.2967,0,0,0,0,0,0,0.0724,0.0814,0.101,0.1175,0.1375,0.1541,0.1754,0.1985,0.2229,0.264,0.2657,0.2909,0.3104,0.3059,0.3102,0.3089,0.2956,0.2803,0.2829,0.2851,0.2865,0.2761,0.252,0,0,0,0,0,0.082,0.0949,0.1063,0.1278,0.146,0.1695,0.2006,0.2104,0.2544,0.2779,0.294,0.3031,0.3122,0.316,0.3233,0.3192,0.3291,0.3227,0.3234,0.3159,0.3097,0.3008,0.3014,0.3009,0.3012,0.3013,0.3015,0,0.0967,0.1016,0.1284,0.1379,0.1468,0.1781,0.2002,0.237,0.2553,0.2949,0.3049,0.3255,0.3451,0.3319,0.3436,0.3383,0.3391,0.3288,0.321,0.3134,0.3038,0.3039,0.3039,0.3033,0.3031,0.303,0.3028,0,0.1094,0.1187,0.1261,0.1499,0.1616,0.1798,0.2183,0.235,0.2694,0.3002,0.3147,0.344,0.352,0.3635,0.3657,0.3549,0.3476,0.344,0.3644,0.355,0.3075,0.3068,0.3062,0.3056,0.305,0.3045,0.3041,0,0.1239,0.1274,0.144,0.1477,0.1673,0.1888,0.2162,0.2379,0.2725,0.2974,0.3316,0.3447,0.3623,0.3703,0.3711,0.3587,0.3704,0.3425,0.3326,0.3517,0.3507,0.3398,0.3373,0.3627,0.3628,0.3629,0.363,0,0.1312,0.1397,0.1478,0.154,0.1708,0.1869,0.2023,0.2385,0.2636,0.3045,0.3191,0.3448,0.3571,0.3624,0.3676,0.3639,0.3672,0.3542,0.3355,0.3334,0.3395,0.3368,0.3632,0.3632,0.3632,0.3633,0.3633,0,0.1367,0.1404,0.151,0.1635,0.17,0.1749,0.2074,0.2292,0.266,0.2896,0.3168,0.3312,0.3529,0.3532,0.3588,0.3594,0.3597,0.3531,0.3521,0.3262,0.3062,0.3034,0.3286,0.3285,0.3283,0.3282,0.3281,0,0.1428,0.1453,0.1461,0.154,0.1592,0.1808,0.1957,0.2253,0.2475,0.2738,0.2961,0.3134,0.3188,0.331,0.3413,0.3373,0.3449,0.3442,0.3225,0.3217,0.3039,0.3235,0.3424,0.3265,0.3267,0.3269,0.327,0,0.1407,0.1392,0.141,0.1476,0.1643,0.1741,0.1928,0.2196,0.2285,0.2629,0.2824,0.2977,0.3162,0.3132,0.3176,0.3235,0.34,0.3196,0.3189,0.3119,0.3407,0.3229,0.322,0.3402,0.3406,0.341,0.3259,0,0.1449,0.1426,0.1427,0.1457,0.1599,0.1728,0.1887,0.2126,0.2222,0.238,0.2666,0.2751,0.2844,0.2889,0.283,0.3043,0.2949,0.2888,0.2764,0.2959,0.2854,0.2865,0.2659,0.2654,0.2649,0.2645,0,0,0.1504,0.1399,0.1434,0.1479,0.1547,0.165,0.1749,0.1888,0.211,0.2282,0.2285,0.2408,0.2426,0.2494,0.2667,0.2629,0.2594,0.2658,0.2856,0.2881,0.2903,0.2816,0.2831,0.2636,0.2635,0.2633,0.2632,0,0.1451,0.142,0.1375,0.15,0.1643,0.167,0.1679,0.186,0.2051,0.2178,0.2153,0.228,0.2302,0.2399,0.2353,0.2551,0.2465,0.2598,0.2793,0.2815,0.2846,0.2872,0.2794,0.2811,0.262,0.2621,0.2621,0,0.1505,0.1422,0.1375,0.1417,0.1524,0.1569,0.1582,0.1725,0.1813,0.1743,0.1925,0.198,0.19,0.2102,0.2156,0.2088,0.2306,0.2259,0.2282,0.2293,0.2306,0.2343,0.2375,0.1956,0.1955,0.1953,0,0,0.1517,0.1427,0.1452,0.1406,0.1457,0.1528,0.1566,0.1683,0.1717,0.1783,0.1847,0.1861,0.1859,0.19,0.1983,0.2075,0.1998,0.2187,0.2218,0.2244,0.227,0.2291,0.2326,0.1948,0.1948,0.1948,0,0,0.1528,0.1383,0.1443,0.1309,0.1486,0.1532,0.1593,0.1582,0.1714,0.172,0.1659,0.1676,0.1812,0.1777,0.171,0.2002,0.1861,0.1872,0.207,0.2108,0.2138,0.217,0.1719,0,0,0,0,0,0.1479,0.1369,0.1422,0.1391,0.1368,0.1498,0.1529,0.1613,0.149,0.1682,0.1656,0.1635,0.182,0.1761,0.1759,0.1922,0.1883,0.1895,0.1906,0.218,0.222,0.2255,0,0,0,0,0,0,0.1466,0.1429,0.1421,0.1413,0.1403,0.1496,0.1435,0.1472,0.1491,0.1515,0.163,0.1638,0.1704,0.1759,0.1758,0.1917,0.1719,0.1888,0.1897,0.1906,0.2194,0.2227,0.2255,0,0,0,0,0,0.1454,0.1425,0.1335,0.1424,0.1416,0.1482,0.1443,0.1472,0.1572,0.1575,0.1598,0.1615,0.1703,0.1705,0.1758,0.192,0.172,0.1719,0.1894,0.1902,0.1909,0.221,0,0,0,0,0,0,0.1446,0.1591,0.1341,0.1344,0.1418,0.1498,0.151,0.1472,0.164,0.1651,0.1557,0.1571,0.1701,0.1703,0.1704,0.1929,0.172,0.172,0.172,0.19,0.1906,0.1911,0,0,0,0,0,0,0.16,0.1595,0.1347,0.1335,0.1342,0.1512,0.152,0.1506,0.1637,0.1629,0.1637,0.1559,0.1597,0.1702,0.1703,0.1692,0.172,0.172,0.172,0.172,0.1905,0.191,0,0,0,0,0,0,0.1602,0.1598,0.134,0.1345,0.1353,0.146,0.1506,0.1459,0.1684,0.1624,0.1688,0.169,0.1585,0.1596,0.1702,0.169,0.1691,0.172,0.172,0.172,0.172,0,0,0,0,0,0,0,0.1603,0.1582,0.1236,0.1354,0.1362,0.1364,0.1373,0.1382,0.1685,0.1686,0.1688,0.1689,0.1721,0.1721,0.172,0.1689,0,0,0.172,0.172,0,0,0,0,0,0,0,0,0.1589,0.1584,0.1236,0.1232,0.1228,0.1365,0.1373,0.138,0.1685,0.1686,0.1687,0.1689,0.1721,0.1721,0.172,0,0,0,0,0,0,0,0,0,0,0,0,0,0,0,0.1235,0.1232,0,0.1366,0.1373,0.1379,0.1685,0.1686,0.1687,0.1688,0.1721,0.1721,0.172,0,0,0,0,0,0,0,0,0,0,0,0,0,0,0,0,0,0,0,0,0,0,0,0,0,0,0,0,0,0,0,0,0,0,0,0,0,0,0,0,0,0,0,0,0,0,0,0,0,0,0,0,0,0,0,0,0,0,0,0,0,0,0,0,0,0,0,0,0]}],[{"header":{"parameterUnit":"kt","parameterCategory":2,"dx":1,"dy":1,"la1":30.253999710083008,"la2":30.299108505249023,"lo1":-89.0895004272461,"lo2":-89.04439544677734,"nx":28,"ny":28,"refTime":"2022-09-18T21:00:00:Z","depth":"4","parameterNumber":3,"parameterNumberName":"V-component_of_CURRENTS"},"data":[0.1032,0.1126,0.1173,0.1291,0.1373,0.152,0.1588,0.1566,0.1475,0.1376,0.1108,0.0972,0.0475,0.0673,-0.0029,-0.0125,-0.023,-0.0756,-0.0761,-0.0913,-0.0909,-0.0906,-0.0785,0,0,0,0,0,0.1035,0.1088,0.1203,0.1309,0.1449,0.1539,0.163,0.1656,0.1594,0.1444,0.1348,0.1022,0.051,0.027,-0.0024,-0.0165,-0.0557,-0.0515,-0.0633,-0.0911,-0.0907,-0.079,0,0,0,0,0,0,0.0999,0.1073,0.1163,0.1296,0.1439,0.1535,0.1599,0.1565,0.1548,0.1339,0.1261,0.0875,0.0647,0.0177,-0.0131,-0.0425,-0.0502,-0.0562,-0.0577,-0.0577,-0.0435,-0.0302,-0.0387,0,0,0,0,0,0.0961,0.1011,0.1091,0.1251,0.1359,0.1489,0.1572,0.1555,0.1498,0.143,0.1183,0.0886,0.0531,0.0126,-0.0209,-0.0514,-0.0707,-0.0817,-0.0817,-0.0795,-0.0728,-0.0773,-0.0758,-0.0892,-0.0891,-0.0891,-0.0891,0,0.0855,0.0944,0.1082,0.1158,0.1228,0.1357,0.1427,0.1409,0.1388,0.1216,0.1162,0.0864,0.0636,0.0133,-0.0201,-0.0623,-0.0689,-0.0805,-0.078,-0.0719,-0.0769,-0.0754,-0.074,-0.0888,-0.0888,-0.0888,-0.0888,0,0.0794,0.0867,0.0991,0.1087,0.113,0.1214,0.1297,0.1294,0.1216,0.115,0.1117,0.0813,0.0515,0.0199,-0.0177,-0.0347,-0.0618,-0.0719,-0.0576,-0.0633,-0.0742,-0.0729,-0.0883,-0.0884,-0.0885,-0.0885,-0.0886,0,0.0735,0.0813,0.0931,0.0982,0.1086,0.11,0.1158,0.1097,0.1022,0.0975,0.0785,0.0677,0.0369,0.0141,-0.0086,-0.0377,-0.0402,-0.0575,-0.0641,-0.0547,-0.0536,-0.0603,-0.0596,-0.064,-0.0638,-0.0637,-0.0636,0,0.0682,0.0781,0.09,0.0911,0.0975,0.0998,0.1019,0.0919,0.0883,0.0739,0.0668,0.0476,0.0379,0.0166,-0.0108,-0.0107,-0.0407,-0.045,-0.0593,-0.0594,-0.0592,-0.0589,-0.0634,-0.0634,-0.0633,-0.0633,-0.0632,0,0.0646,0.0737,0.0845,0.0916,0.0935,0.0938,0.091,0.0868,0.0716,0.0618,0.0498,0.0365,0.0243,0.0167,-0.0094,-0.0037,-0.0198,-0.0326,-0.0338,-0.0367,-0.0435,-0.046,-0.049,-0.0488,-0.0486,-0.0484,-0.0482,0,0.0619,0.0733,0.0753,0.0805,0.0865,0.0812,0.078,0.0693,0.0583,0.0476,0.0339,0.0238,0.0152,0.0114,0.0016,-0.0144,-0.0229,-0.0142,-0.0413,-0.042,-0.0391,-0.042,-0.0272,-0.0456,-0.0459,-0.0462,-0.0464,0,0.0579,0.0686,0.0689,0.0731,0.0732,0.0731,0.0686,0.062,0.0576,0.0415,0.0347,0.0186,0.0118,0.0052,-0.0032,-0.0113,-0.0196,-0.0181,-0.0188,-0.023,-0.0401,-0.039,-0.0406,-0.0262,-0.0264,-0.0265,-0.0445,0,0.057,0.0616,0.066,0.0694,0.0687,0.0698,0.0628,0.0562,0.0488,0.0386,0.0262,0.0121,0.0002,-0.0048,-0.0106,-0.0173,-0.021,-0.0257,-0.0276,-0.0279,-0.036,-0.0374,-0.0235,-0.0237,-0.0238,-0.0239,0,0,0.0516,0.0575,0.0588,0.0622,0.063,0.0572,0.059,0.0509,0.0379,0.0329,0.028,0.0059,-0.0039,-0.0125,-0.0135,-0.0202,-0.0264,-0.019,-0.0277,-0.028,-0.0284,-0.036,-0.0371,-0.0242,-0.0242,-0.0243,-0.0243,0,0.0511,0.0537,0.0592,0.0569,0.0575,0.0541,0.0546,0.0472,0.0413,0.0298,0.0218,0.0126,-0.0049,-0.0121,-0.0179,-0.0214,-0.0293,-0.025,-0.0187,-0.0286,-0.0287,-0.0289,-0.0363,-0.0373,-0.0247,-0.0246,-0.0246,0,0.046,0.0498,0.0509,0.0516,0.0506,0.0497,0.0448,0.0442,0.0393,0.0276,0.0177,0.0082,-0.0037,-0.0133,-0.0181,-0.0192,-0.0317,-0.0281,-0.0276,-0.0255,-0.0359,-0.036,-0.0362,-0.034,-0.034,-0.034,0,0,0.0462,0.0509,0.0483,0.051,0.052,0.046,0.0444,0.04,0.033,0.0291,0.0181,0.0078,-0.0016,-0.0072,-0.0174,-0.026,-0.0317,-0.0287,-0.0282,-0.0278,-0.0255,-0.0356,-0.0358,-0.0339,-0.0339,-0.0339,0,0,0.0445,0.0472,0.0454,0.0495,0.0455,0.0397,0.0412,0.0359,0.0266,0.0268,0.0149,0.0117,0.0021,-0.0051,-0.0025,-0.0172,-0.0198,-0.0206,-0.0112,-0.0108,-0.0104,-0.0048,-0.0086,0,0,0,0,0,0.0438,0.0479,0.0463,0.0468,0.044,0.0408,0.0394,0.0349,0.0339,0.0316,0.0221,0.0174,-0.0062,-0.0042,-0.0073,-0.0086,-0.0325,-0.0328,-0.033,-0.0231,-0.0226,-0.0221,0,0,0,0,0,0,0.044,0.0447,0.0462,0.042,0.0414,0.0406,0.0374,0.0358,0.0339,0.0332,0.0193,0.017,0.0088,-0.0032,-0.0059,-0.0069,-0.0077,-0.0326,-0.0328,-0.033,-0.0229,-0.0225,-0.0221,0,0,0,0,0,0.0442,0.0447,0.0432,0.0415,0.041,0.0361,0.0373,0.036,0.0323,0.0218,0.0194,0.0299,0.009,0.0061,-0.0048,-0.0055,-0.006,-0.0069,-0.0328,-0.0329,-0.0331,-0.0227,0,0,0,0,0,0,0.0443,0.0389,0.0427,0.0422,0.0426,0.0358,0.035,0.0362,0.0205,0.0188,0.0318,0.0314,0.009,0.0068,0.0046,-0.0044,-0.0045,-0.0055,-0.0061,-0.0329,-0.033,-0.0331,0,0,0,0,0,0,0.0387,0.0384,0.0423,0.044,0.0435,0.0355,0.0349,0.0249,0.0201,0.0308,0.0304,0.0318,0.0118,0.0072,0.0055,-0.01,-0.0034,-0.0043,-0.005,-0.0054,-0.033,-0.0331,0,0,0,0,0,0,0.0384,0.0381,0.0439,0.0435,0.0431,0.035,0.0259,0.0219,0.0268,0.0311,0.0269,0.027,0.0123,0.0104,0.0062,-0.0085,-0.0096,-0.0034,-0.0041,-0.0045,-0.0048,0,0,0,0,0,0,0,0.0381,0.0426,0.0483,0.0432,0.0427,0.0376,0.0372,0.0368,0.0268,0.0269,0.0269,0.0269,0.0019,0.0009,-0.0001,-0.0073,0,0,-0.0033,-0.0038,0,0,0,0,0,0,0,0,0.0424,0.0425,0.0483,0.0483,0.0483,0.0375,0.0372,0.0369,0.0268,0.0269,0.0269,0.0269,0.0017,0.0008,0.0,0,0,0,0,0,0,0,0,0,0,0,0,0,0,0,0.0483,0.0483,0,0.0375,0.0372,0.0369,0.0268,0.0269,0.0269,0.0269,0.0014,0.0008,0.0001,0,0,0,0,0,0,0,0,0,0,0,0,0,0,0,0,0,0,0,0,0,0,0,0,0,0,0,0,0,0,0,0,0,0,0,0,0,0,0,0,0,0,0,0,0,0,0,0,0,0,0,0,0,0,0,0,0,0,0,0,0,0,0,0,0,0,0,0,0]}]]]